Location: Unspecified
(33.9239°N, 118.0544°W)
Time: 02:48:17
(UTC-07:00)

Daily predictions for brighter satellites

Satellite Brightness Start Highest point End
(mag) Time Altitude Azimuth Time Altitude Azimuth Time Altitude Azimuth
H-2A R/B 4.1 00:07:47 18° W 00:07:47 18° W 00:11:08 10° NW
Cosmos 2184 Rocket 4.2 00:13:18 63° WNW 00:13:18 63° WNW 00:19:02 10° N
CZ-4C R/B 3.8 00:10:07 10° NNW 00:16:52 41° NE 00:18:45 36° E
Cosmos 2237 Rocket 4.4 00:13:50 10° WNW 00:16:19 15° W 00:16:19 15° W
FALCON 9 R/B 3.1 00:10:44 10° WNW 00:23:34 60° WSW 00:23:34 60° WSW
ALOS 2 4.4 00:28:24 29° N 00:28:24 29° N 00:30:34 10° N
GEOS 3 Rocket 4.5 00:36:02 45° NNE 00:36:02 45° NNE 00:40:12 10° NNW
Cosmos 2341 Rocket 4.3 00:38:55 65° NE 00:38:55 65° NE 00:44:24 10° N
NOSS 3-4 (A) 3.8 00:41:51 64° NE 00:41:51 64° NE 00:47:16 10° NNE
NOSS 3-4 (C) 3.8 00:41:58 63° NE 00:41:58 63° NE 00:47:21 10° NNE
Cosmos 2263 Rocket 3.0 00:53:10 45° NE 00:53:10 45° NE 00:57:06 10° NNE
MOS 1-B Rocket 4.3 01:12:40 56° NNW 01:12:40 56° NNW 01:16:59 10° NNW
CZ-2C R/B 3.5 01:09:31 10° N 01:13:07 45° N 01:13:07 45° N
Cosmos 1943 4.2 01:28:08 10° NNW 01:31:43 38° NW 01:31:43 38° NW
Cosmos 1727 Rocket 4.2 01:30:47 10° N 01:36:29 62° ENE 01:36:29 62° ENE
CENTAUR R/B 4.3 01:49:45 10° NNW 01:57:00 38° NE 02:04:35 10° ESE
Cosmos 909 Rocket 4.4 02:03:05 54° WNW 02:03:28 55° WNW 02:10:28 10° NNE
CZ-4C R/B 3.7 01:58:40 10° NW 02:03:54 37° W 02:03:54 37° W
CZ-2C R/B 4.2 02:09:51 37° WNW 02:09:51 37° WNW 02:13:42 10° NNW
NOSS 3-2 (C) 4.2 02:05:51 10° NW 02:12:50 55° W 02:12:50 55° W
Cosmos 1452 Rocket 3.8 02:17:47 63° NNE 02:17:47 63° NNE 02:22:11 10° NNE
GP-B 4.1 02:22:51 10° NNE 02:26:16 44° NE 02:26:16 44° NE
Cosmos 1844 Rocket 2.7 02:31:31 73° NW 02:31:31 73° NW 02:36:56 10° NNE
Meteor 1-18 Rocket 4.4 02:26:20 10° NNW 02:31:26 64° WNW 02:31:26 64° WNW
Cosmos 1809 Rocket 4.3 02:32:38 75° SE 02:33:02 79° E 02:39:11 10° N
CBERS-1 4.3 02:28:18 10° NNE 02:33:10 60° E 02:33:10 60° E
Cosmos 1821 Rocket 3.9 02:33:34 71° SSE 02:34:15 80° E 02:40:39 10° N
Meteor 1-20 Rocket 4.4 02:35:13 64° WNW 02:35:13 64° WNW 02:40:44 10° N
Cosmos 2263 Rocket 4.3 02:34:50 14° WNW 02:35:54 14° NW 02:38:51 10° NNW
NOSS 2-2 (D) 4.3 02:39:51 49° NNE 02:39:51 49° NNE 02:43:15 10° NNE
UNK 4.3 02:38:42 51° SSW 02:41:09 77° SE 02:45:27 10° NE
IRS-P3 4.1 02:35:58 10° N 02:41:07 75° NW 02:41:07 75° NW
IRAS Rocket 4.1 02:36:40 10° NNE 02:42:13 88° WNW 02:42:20 86° SW
Resurs 1-4 Rocket 4.0 02:38:29 10° NE 02:42:23 21° E 02:44:12 17° ESE
SL-16 R/B 4.4 02:37:35 10° ESE 02:42:32 25° ENE 02:47:27 10° NNE
Meteor 2-21 4.2 02:43:23 77° SSW 02:43:49 85° W 02:49:58 10° N
SL-08 R/B 3.4 02:47:12 75° ENE 02:47:12 75° ENE 02:52:05 10° N
Cosmos 1844 3.6 02:48:59 71° W 02:49:10 72° WNW 02:54:56 10° NNE
ADEOS 3.8 02:44:25 10° NNE 02:49:34 59° E 02:49:59 57° ESE
USA 161 4.5 02:51:54 17° NE 02:51:54 17° NE 02:53:14 10° NNE
NOSS 2-2 (C) 4.2 02:53:55 47° NNW 02:53:55 47° NNW 02:57:39 10° NNE
ATLAS 5 CENTAUR R/B 3.9 02:48:47 10° NNW 02:54:16 34° NE 03:00:03 10° ESE
Meteor 1-11 Rocket 3.7 02:53:38 69° S 02:54:26 86° E 03:00:26 10° N
Cosmos 407 Rocket 4.4 02:53:26 10° NNW 02:56:54 35° WNW 02:56:54 35° WNW
Cosmos 2278 Rocket 2.0 03:00:30 73° SSW 03:01:05 87° WNW 03:06:47 10° NNE
Cosmos 1400 Rocket 3.6 03:01:45 45° ENE 03:01:45 45° ENE 03:05:06 10° NNE
Meteor 1-13 Rocket 4.2 02:55:57 10° N 03:01:43 89° W 03:02:46 62° S
H-2A R/B 4.2 03:02:23 36° S 03:02:23 36° S 03:28:06 10° SE
Cosmos 1461 3.5 03:03:07 57° NW 03:03:07 57° NW 03:07:28 10° NNE
AQUA 3.9 02:58:50 10° N 03:03:19 63° WNW 03:03:19 63° WNW
Cosmos 2297 4.3 03:02:28 40° SE 03:03:44 47° ESE 03:09:09 10° NNE
Centaur D-1A AC-32 4.2 03:09:37 40° SSW 03:10:39 42° S 03:36:53 10° ESE
COSMOS 2406 4.1 03:06:47 10° NW 03:10:50 32° W 03:10:50 32° W
Yuri Rocket 4.0 03:13:22 50° S 03:13:22 50° S 03:18:23 10° ESE
Spot 4 Rocket 3.9 03:10:29 10° NNE 03:15:40 89° WNW 03:16:31 64° SSW
Cosmos 2082 Rocket 4.1 03:18:44 10° N 03:23:40 29° ENE 03:28:34 10° ESE
Cosmos 614 Rocket 4.0 03:24:14 10° NNW 03:29:24 78° ENE 03:32:09 28° SSE
BREEZE-M DEB (TANK) 3.6 03:29:04 46° S 03:30:04 56° SE 03:33:31 10° ENE
Cosmos 1315 Rocket 3.0 03:31:10 58° SE 03:31:45 69° E 03:35:46 10° NNE
OAO 3 Copernicus 4.2 03:31:27 45° W 03:32:59 83° N 03:38:02 10° E
APEX 3.5 03:33:46 47° ENE 03:33:46 47° ENE 03:36:21 10° NNE
BREEZE-M TANK 2.5 03:32:57 44° N 03:33:26 53° NNE 03:36:58 10° ESE
IRS-1D 3.4 03:29:50 10° NNE 03:34:53 86° ESE 03:36:26 45° S
USA 234 3.2 03:29:16 10° SE 03:35:49 89° NE 03:42:23 10° NW
ERS-2 4.0 03:35:31 10° NNW 03:37:42 20° NW 03:37:42 20° NW
Meteor 2-4 Rocket 3.5 03:34:37 10° N 03:40:00 79° W 03:42:21 34° S
Cosmos 1025 Rocket 3.6 03:42:59 10° NNW 03:46:53 38° W 03:46:53 38° W
MOS 1-B 4.4 03:41:47 10° NNE 03:47:38 78° ESE 03:50:57 27° S
CENTAUR R/B 3.3 03:40:17 10° NW 03:47:56 49° WSW 03:55:47 10° S
CZ-2D R/B 2.1 03:43:25 10° NNE 03:48:55 88° WNW 03:51:36 32° SSW
Cosmos 1975 3.7 03:48:44 24° SSE 03:50:46 46° E 03:54:36 10° NNE
Cosmos 1447 Rocket 4.4 03:44:52 10° N 03:51:00 78° W 03:55:08 22° S
Cosmos 1455 Rocket 3.1 03:50:38 46° SW 03:51:41 60° W 03:56:05 10° N
UNK 3.7 03:49:05 24° SSE 03:51:52 87° ENE 03:56:32 10° NNW
Okean O Rocket 2.7 03:50:50 10° NNE 03:54:54 39° E 03:58:01 16° SSE
Cosmos 1626 Rocket 4.4 03:50:55 10° N 03:55:11 49° E 03:59:27 10° SSE
UNKNOWN OBJECT B 2.9 03:52:00 10° NNE 03:56:07 80° ESE 03:57:45 35° S
Meteor 1-12 Rocket 4.5 03:52:06 21° S 03:56:10 71° E 04:01:55 10° NNE
SME Rocket 2.8 03:54:19 26° SSE 03:56:23 85° ENE 04:00:27 10° NNW
Cosmos 1110 Rocket 4.0 03:56:40 34° SSW 03:58:58 71° WNW 04:04:15 10° NNE
Cosmos 1536 4.5 03:59:10 20° WNW 03:59:10 20° WNW 04:02:08 10° NNW
Cosmos 1833 Rocket 3.7 03:55:57 10° N 04:01:22 47° ENE 04:06:44 10° SE
ARIANE 5 R/B 3.0 03:56:59 10° N 04:01:44 44° WNW 04:03:35 31° WSW
Timation 2 Rocket 3.8 03:59:05 10° NNW 04:05:06 68° WSW 04:11:00 10° S
Okean 2 3.7 04:02:42 10° NNW 04:06:38 45° W 04:07:44 36° SW
Cosmos 2061 Rocket 4.0 04:04:03 21° S 04:08:31 79° W 04:14:57 10° N
PSLV R/B 4.3 04:07:16 10° NNE 04:11:22 60° E 04:14:18 18° S
EO 1 Del DPAF 3.5 04:10:24 34° SSW 04:11:41 48° W 04:15:27 10° NNW
USA 129 3.4 04:13:45 21° SE 04:14:41 33° ENE 04:16:35 10° N
Cosmos 1331 Rocket 4.3 04:16:04 26° SW 04:18:50 52° WNW 04:23:54 10° N
IRS-1C Rocket 4.1 04:15:31 10° NNE 04:20:48 90° WNW 04:25:10 15° SSW
Resurs 1-4 Rocket 2.7 04:17:23 10° N 04:22:18 40° WNW 04:25:17 21° SW
Thor Agena Rocket 4.4 04:18:40 10° SSE 04:23:39 51° ENE 04:28:36 10° N
SL-16 R/B 2.9 04:20:47 14° SSW 04:25:49 44° W 04:31:44 10° NNW
Cosmos 2016 Rocket 4.0 04:23:11 13° SSW 04:28:56 75° W 04:35:12 10° N
Cosmos 2369 Rocket 3.8 04:25:44 10° SSE 04:30:39 31° ESE 04:35:35 10° NE
Timation 1 Rocket 4.4 04:27:20 18° SSW 04:31:49 69° WNW 04:37:50 10° NNE
Atlas Centaur 2 3.9 04:26:14 17° SSW 04:32:00 36° SSE 04:39:28 10° E
CZ-3C R/B 3.0 04:33:36 10° S 04:34:50 11° SSE 04:36:29 10° SE
BREEZE-M DEB 3.8 04:37:17 28° WSW 04:38:16 60° NW 04:41:06 10° NE
ATLAS 5 CENTAUR R/B 2.9 04:33:20 10° NW 04:39:02 39° WSW 04:45:00 10° S
ADEOS II 3.8 04:36:23 10° NE 04:41:02 31° E 04:45:39 10° SSE
CZ-2C R/B 3.8 04:38:43 10° S 04:43:25 69° WSW 04:48:12 10° NNW
Cosmos 1725 Rocket 4.0 04:38:46 10° S 04:45:03 85° W 04:51:20 10° N
Cosmos 2278 Rocket 4.3 04:44:30 10° WNW 04:45:57 11° NW 04:47:24 10° NW
PAYLOAD B 4.3 04:42:30 10° N 04:48:04 69° WNW 04:53:37 10° SSW
SL-8 R/B 4.2 04:45:02 13° SSW 04:49:03 52° SE 04:53:41 10° ENE
CZ-4B DEB 4.3 04:50:06 10° N 04:55:38 68° WNW 05:01:08 10° SSW
NOSS 8 (H) 4.4 04:56:34 11° SSW 04:59:51 82° WNW 05:03:27 10° NNE
PSLV R/B 4.2 04:57:27 10° W 05:00:44 43° NNW 05:03:56 10° NE
Cosmos 2285 Rocket 4.3 04:56:13 10° SW 05:02:17 51° WNW 05:08:25 10° N
Cosmos 1666 3.9 04:59:58 10° SSE 05:03:40 44° E 05:07:23 10° NNE
Cosmos 1943 Rocket 4.4 05:02:11 10° SSE 05:06:24 23° E 05:10:38 10° NE
CZ-4B R/B 3.7 05:01:33 10° N 05:06:58 47° WNW 05:12:20 10° SW
Cosmos 1743 2.8 05:03:26 10° SSW 05:07:11 56° W 05:10:57 10° N
Cosmos 2082 Rocket 2.9 05:02:39 10° NW 05:07:41 33° WSW 05:12:40 10° SSW
Cosmos 1500 4.3 05:05:13 10° SW 05:08:35 28° W 05:11:59 10° NNW
Cosmos 1758 Rocket 4.2 05:04:26 10° N 05:08:52 63° E 05:13:18 10° SSE
Cosmos 1825 Rocket 3.5 05:04:38 10° N 05:08:59 72° W 05:13:22 10° S
Cosmos 2084 3.7 05:06:53 10° SW 05:10:36 44° NW 05:14:18 10° NNE
Cosmos 1726 Rocket 3.6 05:07:54 10° SSW 05:12:18 72° W 05:16:43 10° N
Cosmos 1354 Rocket 4.0 05:07:41 10° NNW 05:12:57 89° WSW 05:18:11 10° SSE
Cosmos 1346 Rocket 3.9 05:12:15 10° NW 05:15:37 26° W 05:18:58 10° SSW
OAO 3 Copernicus 4.4 05:12:36 10° W 05:17:39 87° N 05:22:42 10° E
USA 234 4.4 05:14:52 10° SSW 05:19:13 19° WSW 05:23:36 10° W
CZ-3B DEB 4.2 05:03:26 10° NW 05:26:58 81° NE 05:33:59 10° SE
